Theta_e
294 294 294 294 295 296 296 295 294 294 294 294 293 293 293 293 294 294 295 294 295 294 294 294 294 293 292 291 291 291 292 291 291 291 291 291 291 291 291 291 291 290 290 290 291 292 292 292 292 292 291 289 288 288 288 289 289 289 289 288 288 287 287 287 287 288 288 288 288
293 292 292 292 293 294 295 295 294 294 294 294 293 293 293 294 294 294 294 293 294 294 294 294 292 291 291 291 291 291 291 291 290 290 290 290 290 290 290 289 289 289 289 289 289 290 291 291 291 290 290 289 287 287 287 288 288 288 287 286 286 286 286 286 287 287 287 287 288
292 292 293 293 293 294 294 294 293 292 292 292 293 293 293 294 294 294 294 293 292 292 293 293 291 290 290 289 290 290 290 290 289 289 289 289 289 289 288 288 288 288 288 288 288 289 289 289 289 289 289 288 287 286 286 286 287 287 286 285 286 286 286 286 286 287 287 287 288
292 292 293 293 292 292 292 293 292 291 291 292 292 292 293 294 294 293 293 291 291 292 291 290 290 289 289 288 289 289 289 288 288 288 288 288 287 287 287 287 287 286 287 287 287 287 287 287 288 288 288 287 285 285 286 286 286 286 286 285 285 285 285 286 286 286 287 287 287
291 292 292 293 292 291 291 291 291 291 292 292 293 293 293 293 293 292 292 292 292 291 290 288 289 289 288 288 288 288 288 287 287 287 287 286 286 286 285 285 285 285 286 286 286 286 286 286 287 287 287 286 286 285 285 284 284 284 285 285 285 285 285 285 286 286 286 286 286
291 291 291 291 291 291 291 291 290 291 291 292 292 292 292 293 292 292 291 291 289 288 288 288 288 288 287 287 287 287 287 287 287 287 286 286 285 285 285 285 284 284 285 285 285 285 285 284 286 287 286 286 285 284 283 283 283 283 283 284 284 284 284 284 285 285 285 284 284
291 291 291 290 290 290 290 290 290 290 291 291 290 289 289 289 289 288 288 288 288 288 288 288 287 287 287 287 287 287 286 286 286 286 285 285 284 284 284 284 283 283 283 284 283 283 283 283 285 286 286 286 285 284 282 282 282 282 282 282 283 284 283 282 283 284 283 282 282
291 290 290 290 290 289 289 290 290 290 291 291 289 288 287 287 287 287 287 288 288 287 287 288 287 286 286 286 286 286 285 285 285 285 284 284 284 283 283 283 282 282 282 282 282 282 282 284 284 284 284 284 285 283 282 281 281 280 280 280 282 282 282 281 281 281 281 281 281
290 290 290 289 289 289 289 289 289 289 290 289 288 287 287 287 287 287 287 287 287 287 287 287 286 286 285 285 285 285 285 284 284 284 284 283 283 283 283 282 282 282 282 282 281 281 281 283 283 283 283 283 283 282 281 281 280 280 279 280 280 280 280 280 280 280 280 279 280
289 289 289 289 288 288 288 289 288 288 288 287 287 286 286 286 286 286 287 287 286 286 286 286 285 285 285 284 284 284 284 284 283 283 283 282 282 282 282 282 281 281 281 281 281 281 281 282 281 281 280 280 280 280 280 281 280 279 279 280 279 278 278 278 278 278 278 278 279
288 288 288 288 288 288 288 288 288 288 288 287 286 286 286 286 286 286 286 286 285 285 285 285 284 284 284 284 284 283 283 283 282 282 282 282 281 281 281 281 281 281 281 281 280 280 280 280 280 279 279 279 279 279 280 280 279 279 278 278 278 277 277 277 277 277 277 277 277
287 287 287 287 287 287 288 288 288 287 287 286 286 286 286 286 286 285 285 284 284 284 284 284 284 283 283 283 283 282 282 282 281 281 281 281 281 281 281 281 281 281 281 281 280 280 280 279 279 279 279 279 279 279 279 279 279 278 278 278 277 277 277 277 277 276 276 276 277
286 286 287 286 286 287 287 287 287 286 285 285 285 285 285 285 285 284 284 284 284 284 284 283 283 283 282 282 282 281 281 281 280 280 280 280 280 280 280 280 280 280 280 280 280 279 279 279 279 279 279 279 279 279 279 279 278 278 277 277 276 276 276 276 276 276 276 276 276
285 286 286 286 286 286 286 286 286 286 285 284 284 284 284 284 284 283 283 283 283 283 282 282 282 282 282 281 281 280 280 280 280 280 280 280 280 280 280 280 280 280 280 280 280 280 279 279 279 279 279 279 279 279 279 278 278 277 277 276 276 276 276 276 276 276 276 276 276
285 285 286 286 286 286 285 285 285 285 284 284 284 283 283 283 283 283 282 282 282 281 281 281 281 281 281 281 281 280 279 279 279 279 279 280 280 280 280 280 280 280 280 280 280 280 279 279 279 279 279 279 279 279 278 278 277 277 277 277 276 276 276 276 276 276 276 275 275
285 285 285 285 285 285 284 284 284 284 284 284 283 282 282 282 282 282 282 281 281 280 280 280 280 280 280 280 280 279 279 279 279 279 279 279 279 279 279 279 279 279 279 280 280 279 279 279 279 279 279 279 279 278 278 278 277 277 277 277 276 276 276 276 275 275 275 275 274
284 284 284 284 284 284 283 283 283 283 283 282 282 282 281 281 281 281 281 281 280 280 280 280 279 279 279 279 279 279 278 278 279 279 279 279 279 279 279 279 279 279 279 278 279 279 279 278 279 279 279 279 279 278 278 278 278 277 277 277 277 276 276 276 275 275 274 274 274
284 284 284 283 283 283 283 282 282 282 282 282 281 281 281 281 281 281 281 281 280 280 279 279 278 278 278 278 278 278 278 278 278 278 278 278 278 278 278 278 278 278 278 278 278 278 278 279 279 279 279 279 278 278 278 278 277 277 277 277 276 276 276 276 275 275 274 274 274
284 283 283 283 282 282 282 282 281 281 281 281 280 280 280 280 281 281 280 280 280 279 278 278 277 277 278 278 278 278 278 278 278 278 278 277 277 277 277 277 278 277 277 277 277 278 278 279 279 279 279 279 279 279 278 277 276 276 276 276 275 275 275 275 275 274 274 274 274
283 283 283 282 282 282 282 282 281 281 281 280 280 280 280 280 280 280 279 279 278 278 277 277 277 277 277 277 277 277 278 277 277 277 277 277 277 277 277 277 277 277 277 277 277 278 278 278 278 279 279 279 279 279 278 276 275 275 275 275 275 275 275 275 274 274 274 274 274
282 282 282 281 281 281 281 281 281 280 280 280 280 280 280 280 280 279 279 278 277 277 276 276 277 277 277 277 277 277 277 277 277 277 277 277 277 277 276 276 276 276 276 277 277 278 278 278 279 279 279 280 279 278 277 275 274 274 274 273 274 274 274 274 274 274 274 274 274
282 281 281 281 280 280 280 281 280 280 280 280 281 281 281 280 279 278 278 277 277 276 276 276 277 276 276 276 276 276 276 276 276 276 276 276 276 276 276 276 276 276 276 276 277 277 278 279 280 280 281 280 279 278 276 274 273 273 273 273 274 274 275 275 275 275 275 275 275
281 281 280 280 280 280 280 280 280 280 281 281 281 281 280 279 278 277 277 276 276 276 276 276 276 276 276 276 275 275 275 275 276 276 276 276 276 276 275 275 275 276 276 277 278 278 279 280 281 281 281 281 279 277 275 274 273 273 273 274 275 275 275 276 275 275 275 275 275
280 280 280 280 280 279 279 280 281 281 281 281 281 280 278 278 277 276 276 276 276 276 276 275 275 275 275 275 275 275 275 275 275 275 275 275 275 275 275 275 275 276 276 278 281 281 282 282 282 281 281 281 278 276 274 273 274 274 274 275 275 275 275 275 275 275 275 275 275
280 280 280 280 280 280 280 281 281 281 281 281 279 278 277 277 276 276 276 276 276 276 275 275 275 275 275 275 275 275 275 274 274 274 275 275 275 275 275 275 275 276 278 281 284 285 285 284 284 282 281 279 276 274 273 273 275 276 276 276 276 275 274 274 274 275 275 275 275
280 280 280 281 281 282 282 282 281 281 280 279 278 277 277 276 276 276 276 276 276 275 275 274 274 275 275 274 274 274 274 274 274 274 274 274 274 274 275 275 276 277 279 283 284 285 285 285 285 283 281 277 275 273 273 273 276 277 277 277 277 276 275 274 274 274 274 275 275
280 280 281 282 283 282 282 281 280 279 279 277 277 277 276 276 275 275 275 275 275 275 274 274 274 275 275 273 273 273 273 273 273 273 273 273 273 274 274 274 275 277 280 283 284 284 285 285 285 284 282 277 275 275 275 276 276 277 277 277 276 276 275 274 274 274 274 274 274
280 281 282 283 282 282 281 280 279 278 278 277 276 276 276 275 275 275 275 275 274 274 274 274 274 274 273 273 273 273 273 273 273 273 273 273 273 273 273 274 274 277 280 283 284 284 285 285 285 284 282 279 276 275 276 277 277 277 277 276 276 276 275 275 275 274 274 274 273
281 282 282 282 282 281 280 279 278 278 277 276 276 276 276 276 276 276 275 275 274 274 274 274 273 273 273 273 272 272 272 272 272 272 272 272 273 273 273 273 273 276 280 283 284 284 284 285 284 283 282 280 277 276 276 277 277 276 276 276 276 276 275 275 275 275 274 274 273
282 282 282 282 281 280 280 278 277 277 276 275 276 276 276 276 276 276 275 275 274 274 274 273 272 272 272 272 272 272 272 272 272 271 271 272 272 273 273 273 273 275 279 283 284 284 284 284 283 283 281 281 278 276 275 276 276 276 276 276 276 276 275 275 275 274 274 274 273
282 282 281 280 280 279 278 277 276 276 276 275 276 276 277 277 276 275 275 274 274 274 273 272 272 272 272 272 271 272 272 272 271 271 271 271 272 272 272 272 272 275 279 283 283 284 284 284 283 282 281 280 278 276 275 275 275 275 275 275 275 275 275 274 274 274 274 273 273
281 280 279 279 278 278 277 276 276 275 276 276 276 277 277 276 275 274 273 273 273 273 272 272 272 272 272 272 272 272 272 271 271 271 271 271 271 271 272 271 271 274 279 283 283 283 283 283 283 282 281 280 278 276 274 274 274 274 274 274 274 274 274 274 273 273 272 272 272
280 279 278 278 278 277 277 276 275 275 276 276 277 277 277 276 274 273 273 273 272 272 272 273 273 273 273 273 272 272 272 272 272 272 272 271 271 271 271 271 271 275 280 282 282 282 282 282 282 282 281 280 277 274 273 272 273 273 273 273 273 273 273 273 273 272 272 272 271
279 278 277 277 277 276 276 275 275 275 276 277 277 277 276 275 274 274 274 273 273 272 272 272 272 272 272 272 272 272 272 272 271 271 271 271 271 271 270 270 271 275 280 281 281 281 281 281 281 281 281 279 276 273 272 272 272 272 272 272 272 272 272 272 272 272 271 271 271
278 278 277 277 276 276 276 275 275 276 276 277 278 277 276 275 275 275 275 275 274 273 272 271 271 271 271 271 271 271 271 272 271 271 271 271 270 270 270 270 270 275 279 280 281 281 281 281 281 281 280 278 274 272 271 271 272 272 272 271 272 272 271 271 271 271 271 271 271
278 278 277 277 277 277 276 276 276 277 277 278 278 277 277 276 275 275 275 275 274 273 272 272 271 272 272 272 272 272 272 271 272 272 272 271 270 269 269 269 269 273 277 280 280 281 281 281 281 281 279 276 272 271 271 271 271 271 271 271 271 271 271 271 271 271 271 271 271
278 277 277 277 277 277 277 277 277 277 278 278 278 277 277 277 276 276 275 275 274 274 273 272 272 273 273 273 272 272 271 271 271 272 272 271 269 269 268 269 269 271 275 279 280 280 281 281 281 280 278 274 272 271 271 271 271 271 271 270 270 270 270 270 270 271 271 271 272
277 276 277 277 277 278 278 278 278 278 278 279 278 277 277 277 276 276 275 275 274 274 273 273 273 274 273 273 272 272 271 271 271 271 271 270 269 268 268 268 268 270 274 278 280 280 281 281 281 280 278 274 272 272 272 272 271 271 271 271 270 270 270 270 270 270 271 270 273
276 276 276 277 277 278 278 278 279 279 279 279 279 279 278 277 276 276 276 275 274 274 274 274 274 274 273 273 272 272 271 271 272 271 270 269 269 270 269 268 268 269 273 278 279 280 280 280 280 280 279 276 273 272 272 273 272 271 271 271 271 270 270 270 270 271 271 271 275
275 275 275 277 277 278 279 279 280 280 280 279 280 280 279 277 277 277 277 275 274 274 275 275 275 274 273 273 272 271 271 271 271 271 269 269 270 271 272 267 267 268 271 276 279 280 280 280 280 280 279 277 275 273 272 274 273 272 271 272 272 272 271 271 271 272 272 271 273
275 275 276 277 278 279 280 281 281 281 281 280 280 280 278 277 277 277 277 275 275 275 274 274 274 273 273 272 271 270 270 270 270 270 269 269 269 270 271 267 267 267 269 273 278 279 280 280 280 280 280 278 276 274 273 274 274 273 273 273 273 272 272 271 272 273 273 271 271
Wind_Speed
5 5 4 4 4 4 4 4 3 3 3 3 3 3 3 3 4 4 3 3 3 3 3 3 3 3 4 5 6 6 6 7 7 7 7 8 8 8 8 8 8 8 8 8 7 7 6 6 5 5 5 5 5 5 5 5 5 6 6 6 5 5 5 5 6 7 8 8 7
6 5 5 4 5 4 4 4 3 3 3 3 3 3 3 3 4 4 3 3 3 3 3 3 3 4 5 6 6 6 6 6 7 7 7 7 7 7 7 7 7 7 7 7 7 6 5 6 5 4 4 4 5 5 5 5 5 5 5 5 4 4 4 5 5 6 6 7 7
5 5 5 5 5 5 4 4 4 4 4 3 3 3 3 3 3 3 3 3 3 3 3 3 4 4 5 5 5 5 5 5 6 6 6 6 6 6 6 6 6 7 7 6 6 6 5 5 4 4 4 4 4 4 5 5 5 5 4 5 4 4 4 4 5 5 5 5 6
5 5 6 6 7 6 5 4 4 4 4 3 3 3 3 3 3 3 3 3 3 3 3 3 4 4 4 4 5 5 5 5 5 5 5 5 5 5 5 5 6 6 6 6 6 6 5 5 4 3 3 3 4 4 4 4 4 4 4 3 3 3 3 4 4 4 4 4 5
5 5 5 6 6 6 5 4 4 4 3 3 3 3 3 3 3 3 3 3 3 3 3 3 3 3 4 4 4 4 4 4 4 4 4 4 4 4 4 5 5 5 5 5 5 5 5 4 3 3 3 2 2 2 3 3 4 3 3 3 3 3 3 3 3 3 4 4 4
5 5 5 5 6 5 4 4 4 4 3 3 4 4 4 3 3 3 3 3 3 3 3 3 3 3 3 3 3 3 3 3 3 3 3 3 3 3 4 4 4 4 4 5 5 4 4 3 2 2 2 2 2 2 2 3 3 3 3 3 3 3 3 3 3 3 4 4 5
5 6 6 6 5 5 4 4 3 3 3 4 5 5 4 3 3 3 3 2 2 2 3 3 3 3 3 3 3 3 3 3 3 3 3 3 3 3 3 3 3 3 3 3 4 4 3 2 2 2 2 2 1 2 2 2 2 2 3 3 3 3 3 3 3 3 4 5 6
6 6 6 6 5 5 4 3 3 3 3 4 4 5 4 4 4 3 3 2 2 2 2 2 2 2 2 2 3 3 3 3 3 3 3 2 3 3 3 3 3 3 3 3 3 3 3 2 2 1 1 2 2 2 2 2 2 2 3 3 3 3 3 3 3 3 4 5 5
5 5 5 5 5 5 4 4 4 4 4 4 4 4 3 3 3 3 2 2 1 1 1 2 2 2 2 2 3 3 3 3 3 3 3 2 3 3 3 3 3 3 3 2 2 2 2 2 2 2 2 2 2 2 3 3 2 2 3 3 3 3 3 3 3 3 3 4 5
4 4 4 4 4 4 4 4 4 4 4 4 4 3 3 2 2 2 1 1 1 1 1 1 1 2 2 3 2 2 2 2 2 2 2 3 3 3 3 3 3 3 3 3 2 2 2 2 2 2 3 2 2 3 3 3 3 3 3 3 3 3 4 4 3 3 3 3 4
3 3 3 3 3 3 3 3 3 3 4 4 3 2 2 2 2 1 0 0 1 1 1 1 1 2 2 2 2 2 2 2 2 2 2 3 3 3 3 3 3 3 3 3 3 2 2 2 2 3 4 3 3 3 3 3 3 3 3 3 3 3 4 4 4 3 3 3 4
3 2 2 2 2 2 2 3 3 3 3 3 2 2 1 1 1 0 0 0 1 1 1 1 1 1 1 2 2 2 2 2 2 2 2 3 3 4 4 4 4 4 4 4 3 2 2 2 2 3 4 4 4 4 4 4 4 4 4 4 3 3 4 4 4 4 3 3 4
2 2 2 1 1 2 2 3 2 2 2 2 1 1 1 0 0 0 0 0 0 1 1 1 1 1 1 1 2 2 2 2 2 2 3 3 4 4 5 5 5 5 5 4 3 2 2 2 3 4 5 5 5 5 4 4 4 4 4 4 4 4 4 5 5 5 4 4 4
2 2 2 1 1 2 2 2 2 2 1 1 0 0 1 1 1 1 1 0 1 1 1 2 1 1 1 1 2 2 3 3 3 3 4 4 5 5 6 6 6 6 6 5 4 3 3 3 4 4 5 6 6 6 5 4 4 4 4 5 5 5 6 6 6 5 5 5 5
2 1 1 1 1 2 2 2 1 1 1 0 1 1 1 1 1 1 1 1 1 1 2 2 2 2 2 2 2 2 3 3 3 4 5 5 6 6 6 6 7 6 6 6 5 5 4 4 4 4 5 6 6 6 6 5 4 4 4 5 5 6 6 7 7 6 6 6 6
1 1 1 1 1 2 2 1 1 0 0 0 1 1 1 1 1 1 1 1 1 2 2 2 2 3 2 2 2 2 3 3 3 4 5 6 6 6 6 7 7 7 7 7 7 6 6 5 5 5 5 6 6 6 6 5 4 4 4 4 5 5 6 7 7 7 7 7 6
1 1 1 1 1 1 1 1 0 0 1 1 1 2 1 1 1 1 1 1 1 2 2 3 3 3 3 3 3 3 3 3 4 4 5 5 5 6 6 6 6 6 6 6 7 7 7 7 6 5 5 6 6 5 5 4 4 4 4 4 4 4 5 5 6 6 7 7 7
1 1 0 1 1 1 1 1 1 1 1 2 2 2 2 2 1 1 1 1 1 2 3 3 3 3 3 3 3 3 3 3 4 4 4 4 5 5 5 6 6 6 6 6 6 6 7 7 7 6 6 5 5 4 4 3 3 3 3 3 3 3 4 4 4 4 5 6 7
1 1 0 0 1 1 1 2 2 2 2 2 2 2 2 2 1 1 1 1 1 2 2 3 3 3 3 3 3 3 3 3 3 4 4 4 4 4 5 5 5 5 5 5 5 6 6 7 7 7 6 6 5 5 4 3 3 3 3 3 3 4 4 4 4 3 4 4 6
1 1 1 2 2 2 2 3 3 3 2 2 2 2 2 2 1 1 2 2 2 1 2 2 3 3 3 3 3 3 3 2 3 3 4 4 4 4 4 5 5 5 5 5 5 6 6 7 7 7 6 7 6 5 5 3 3 3 3 3 4 4 4 4 4 4 4 4 5
2 2 2 3 3 3 3 3 3 2 2 2 2 2 2 1 0 1 1 2 1 1 1 2 2 3 3 3 4 4 3 2 2 3 3 3 4 4 4 4 5 5 5 6 6 6 6 6 6 6 6 7 6 6 5 4 3 4 4 4 4 5 5 5 5 5 5 5 5
3 3 3 3 3 4 4 3 2 2 2 2 2 2 1 0 0 1 1 1 1 1 1 2 2 2 2 2 3 3 3 2 2 2 2 3 3 4 4 4 5 6 6 6 6 6 6 6 6 6 6 6 6 5 4 3 3 3 4 4 5 5 5 6 6 6 6 6 6
3 3 3 4 4 3 3 2 2 2 2 2 2 2 1 1 1 1 1 1 1 2 2 1 1 1 1 1 2 2 2 3 3 3 3 3 4 4 5 5 5 6 6 6 6 6 6 6 6 6 6 6 5 5 4 3 3 3 3 4 5 5 6 6 6 6 6 6 6
3 3 3 3 3 2 2 2 2 2 2 2 2 1 1 1 2 2 2 2 2 2 2 1 1 1 1 1 1 2 2 3 4 4 5 5 5 5 5 5 5 5 5 5 7 8 8 6 6 6 6 5 4 4 4 3 2 2 3 4 4 5 5 6 6 6 6 6 6
3 3 3 3 3 2 2 2 2 2 2 2 1 1 1 2 2 2 3 3 2 2 2 2 2 2 2 2 2 2 3 3 3 4 5 6 6 6 5 5 5 5 5 5 11 14 14 11 9 7 6 5 4 3 3 3 3 4 4 4 4 4 5 5 6 6 6 6 6
3 3 3 3 3 2 2 2 2 2 2 1 1 1 1 1 2 2 2 3 3 2 2 2 2 2 2 3 3 3 3 3 3 3 4 4 5 6 5 5 5 4 5 8 13 15 16 16 14 11 8 5 4 4 4 4 5 5 5 5 5 5 5 5 5 6 6 6 6
3 3 4 4 3 3 2 2 2 2 1 1 1 1 1 1 1 2 2 2 2 2 2 2 2 2 3 3 3 4 3 3 3 2 3 3 4 5 5 5 5 4 6 11 14 15 16 16 16 14 11 6 5 4 4 5 5 6 6 6 5 5 5 5 5 6 6 6 6
4 4 4 3 3 2 2 2 2 1 1 1 1 1 1 1 2 2 2 2 2 2 2 2 2 2 2 3 3 3 3 2 2 2 2 2 3 4 5 5 5 6 8 13 15 15 15 15 15 14 13 8 5 4 4 4 5 5 5 5 5 5 5 5 5 5 6 6 6
4 4 4 3 3 2 2 2 2 2 1 1 1 1 1 1 2 2 2 2 2 2 2 2 2 2 2 2 2 2 2 2 2 2 2 2 3 4 4 5 5 7 10 14 15 15 14 14 14 14 12 10 5 3 3 4 4 4 4 4 4 5 5 5 5 5 6 6 6
5 4 3 3 3 2 2 2 2 1 1 1 1 1 2 2 2 2 2 2 1 1 1 1 1 2 2 1 1 1 2 2 2 1 2 3 3 4 4 5 5 7 10 14 15 14 14 13 13 12 11 10 6 4 3 4 4 4 4 5 5 6 6 6 6 6 7 6 7
5 3 3 2 2 2 2 2 1 1 1 1 1 2 2 3 2 2 1 1 1 0 0 1 2 2 1 1 1 1 1 2 2 1 2 2 3 3 4 5 6 7 9 14 14 14 14 13 12 11 11 10 7 5 4 4 4 4 5 5 6 7 7 6 7 7 7 8 8
4 3 2 2 2 2 2 2 2 1 2 2 2 2 2 3 2 2 1 1 1 0 1 1 2 1 1 1 1 1 1 1 1 1 1 1 2 2 3 5 5 7 9 14 14 14 14 13 12 11 11 10 7 5 4 4 5 5 5 6 7 7 7 6 6 7 8 8 8
3 2 2 2 2 2 2 2 1 1 2 2 2 2 2 3 2 2 1 1 0 1 1 2 1 1 1 0 0 1 1 1 1 1 1 1 1 2 3 4 5 7 10 13 14 14 14 14 13 12 11 10 7 5 4 4 4 5 5 6 6 7 7 7 7 7 8 8 8
3 2 2 2 3 2 2 1 1 1 2 3 3 3 2 2 2 2 1 1 1 1 1 2 2 2 2 1 1 0 0 1 1 1 1 1 2 2 3 4 4 7 11 13 13 14 14 14 14 13 11 10 6 5 5 5 5 5 6 6 7 7 7 7 7 7 8 8 7
2 2 3 3 3 2 2 1 1 1 2 3 4 4 3 2 2 2 2 1 1 1 1 1 1 1 1 1 1 1 1 1 1 1 1 1 2 3 4 4 5 8 12 13 13 14 14 14 14 13 11 8 5 4 4 5 5 6 7 7 7 8 8 7 7 7 7 8 7
3 3 4 4 3 3 2 1 0 1 2 3 4 4 4 3 3 2 2 2 2 1 1 1 0 0 0 0 0 1 1 1 0 1 1 1 2 3 4 4 5 8 11 13 13 13 13 14 14 13 10 6 4 4 4 5 5 6 7 7 8 8 8 8 7 7 7 7 7
3 4 4 4 4 3 2 2 1 1 2 3 4 3 3 3 3 2 2 2 2 2 2 1 1 1 1 1 1 1 1 1 0 1 1 2 2 3 3 4 5 7 10 12 13 13 13 14 14 12 9 4 4 4 4 5 5 6 7 7 7 7 7 7 7 7 7 8 8
4 4 4 4 4 3 2 2 1 2 2 3 3 3 2 2 2 2 2 3 2 2 2 2 2 2 2 1 1 1 1 1 0 1 2 2 2 2 2 4 4 6 8 11 12 13 13 13 14 13 9 3 4 4 5 5 5 6 6 6 6 6 6 6 6 6 7 8 11
3 3 3 3 3 2 2 2 2 3 3 3 3 3 2 2 2 2 2 2 3 3 4 4 3 2 2 2 1 0 0 0 1 1 2 1 1 1 2 3 4 5 7 11 12 12 13 13 14 13 10 4 4 4 5 5 6 6 6 6 5 5 5 5 5 5 6 7 12
2 2 2 2 2 2 2 3 3 3 3 3 3 3 3 2 2 2 2 2 3 3 4 4 4 3 3 2 1 1 0 1 1 1 1 1 1 2 3 2 3 5 7 10 11 12 13 13 14 14 12 5 4 4 5 5 6 6 6 5 6 6 6 6 5 5 5 6 10
2 2 3 3 3 3 3 4 4 4 3 3 3 3 2 2 2 2 2 2 2 2 3 3 4 4 4 2 1 1 1 1 1 1 1 1 2 2 3 2 3 4 6 8 11 12 12 13 13 14 13 8 5 5 4 5 6 7 7 8 8 8 7 7 6 6 6 6 7
Wind_Direction
55 57 63 70 76 78 77 71 63 61 63 65 62 59 59 62 61 55 48 43 44 40 35 31 24 17 12 11 16 18 20 21 23 26 28 27 25 21 19 18 16 13 11 7 5 6 10 12 21 31 34 29 20 15 11 7 2 9 17 17 11 3 360 4 4 360 356 356 353
58 60 65 70 75 78 78 72 63 57 55 57 58 59 61 63 63 59 51 44 41 37 31 28 20 16 13 13 16 20 22 23 24 27 28 28 25 23 20 19 16 14 12 9 9 10 13 14 24 32 34 29 20 14 10 5 1 6 12 14 8 1 358 0 360 355 352 353 352
64 65 67 70 72 75 76 73 63 57 53 51 53 55 59 62 63 61 55 46 39 33 30 25 17 14 13 13 16 20 24 25 27 28 30 28 25 22 20 18 16 14 13 13 14 14 14 14 25 32 34 28 21 14 8 360 357 359 3 5 4 1 359 357 353 350 349 350 348
68 69 71 72 72 73 75 76 67 60 56 55 54 56 57 59 61 59 55 46 38 33 28 21 14 12 13 15 17 19 22 25 28 31 31 28 23 20 19 18 17 15 14 14 15 16 15 17 26 31 31 26 21 14 5 355 352 352 353 354 357 358 356 351 346 345 345 344 343
68 70 73 76 75 74 74 75 70 65 61 60 61 59 58 57 57 54 50 45 37 30 23 18 15 13 12 17 20 21 22 22 27 30 31 27 21 17 16 19 19 16 13 13 13 13 15 20 28 30 23 16 17 8 355 343 345 344 343 343 346 348 346 342 339 337 337 337 337
72 70 70 72 73 73 71 70 70 70 68 65 65 62 58 55 53 52 50 46 36 26 20 20 18 15 14 18 22 24 23 20 22 27 29 25 16 13 14 17 15 13 11 9 7 7 9 18 27 25 12 360 356 344 338 340 341 340 337 334 334 335 336 334 330 331 331 333 332
75 72 69 67 69 69 69 67 70 72 71 69 66 64 60 57 55 53 52 47 38 28 23 23 22 20 20 21 24 25 23 18 16 20 23 18 11 9 9 8 6 4 3 1 1 359 358 2 12 4 347 334 327 321 321 331 337 337 333 327 325 326 327 323 323 325 328 328 328
71 69 67 65 67 68 69 68 72 74 73 71 68 65 63 60 59 56 53 48 40 32 25 25 23 22 22 25 25 23 20 15 12 12 11 8 3 0 359 356 355 351 347 349 354 352 347 343 346 334 317 308 307 306 308 316 329 332 326 318 315 317 320 317 320 323 326 326 327
68 66 64 63 66 68 71 72 77 80 80 76 71 69 66 64 64 63 60 55 46 34 28 28 19 18 21 25 23 19 15 12 7 1 355 356 356 352 349 347 347 341 335 332 339 340 336 331 328 313 300 295 295 295 298 308 323 325 319 310 311 313 315 314 319 322 325 326 327
70 68 66 66 67 71 76 78 79 82 83 79 74 71 67 67 68 69 72 80 66 42 33 24 13 13 16 17 13 7 360 355 353 348 347 349 350 347 343 341 341 337 330 324 324 324 325 326 319 310 301 294 292 291 296 305 316 317 312 306 311 314 316 315 319 323 325 324 323
73 72 72 75 76 80 84 85 81 80 80 80 76 72 67 68 68 70 83 115 70 51 31 4 10 14 12 3 350 338 328 326 332 339 342 343 342 340 338 336 337 335 330 323 318 317 318 321 315 310 306 301 296 296 299 305 311 311 308 305 310 314 316 314 317 320 320 317 316
77 75 75 79 85 90 92 91 86 82 79 80 76 70 67 68 68 41 333 46 63 44 356 327 1 11 359 336 320 312 311 317 325 334 339 340 338 337 336 336 335 334 330 324 318 315 314 310 308 307 306 303 301 300 302 304 308 309 308 307 312 315 314 312 313 314 314 314 316
82 83 83 84 90 94 94 92 87 82 77 75 70 60 40 2 314 305 327 33 28 343 323 318 331 340 333 313 311 313 318 323 329 335 340 340 339 338 338 336 335 332 329 325 320 315 308 300 297 298 299 300 300 299 300 302 305 307 308 310 314 314 312 309 311 313 316 320 319
85 93 100 103 99 96 93 89 85 78 73 62 28 335 314 310 309 314 321 330 330 323 316 315 318 321 321 317 318 321 324 328 335 341 343 342 341 340 339 335 333 331 329 326 322 317 309 299 292 289 290 293 295 296 298 302 305 307 308 312 314 313 312 311 313 317 321 323 320
88 95 105 106 97 90 87 85 83 77 70 36 298 289 293 300 304 311 321 329 316 311 310 317 322 326 330 337 333 332 331 334 342 346 347 345 343 340 338 334 332 330 329 327 324 320 312 302 293 288 285 286 290 293 298 305 309 312 314 316 316 316 317 317 319 321 323 322 319
95 95 93 89 88 86 84 84 80 81 73 270 276 281 287 290 296 307 324 328 317 316 320 326 329 333 340 348 347 344 344 345 349 350 350 346 342 339 335 333 331 329 328 327 325 322 317 310 301 293 287 284 286 290 297 305 313 318 319 319 319 319 319 320 322 322 322 320 316
100 95 80 80 88 92 96 111 186 239 245 255 268 276 281 286 296 308 320 326 329 331 331 331 334 341 347 351 352 354 353 352 353 351 348 343 338 334 331 329 327 325 325 325 324 322 319 316 311 303 295 288 288 291 296 304 311 313 313 314 315 315 315 317 320 320 319 318 312
111 107 83 82 104 125 149 191 220 232 238 247 259 268 276 285 299 307 317 333 344 340 336 333 338 346 352 352 351 354 357 356 351 346 341 336 332 329 327 325 324 324 324 325 323 321 320 318 317 313 308 301 297 296 298 301 300 298 298 300 302 302 303 306 309 310 311 310 305
151 169 182 172 179 191 203 213 220 226 232 239 253 267 277 281 294 311 331 348 351 345 339 337 340 345 350 350 349 353 358 358 347 341 336 333 332 332 331 328 327 327 328 328 326 324 323 322 322 321 320 316 312 309 306 302 295 292 293 296 296 295 295 295 296 296 296 297 298
186 200 210 212 212 214 218 221 223 227 233 241 253 264 270 271 284 338 355 348 339 338 343 347 346 346 346 347 351 354 355 352 346 340 337 336 341 341 339 334 333 333 334 336 335 332 330 327 327 327 326 323 318 313 309 306 304 304 305 305 302 300 300 300 301 301 301 299 297
207 216 220 224 224 225 225 227 229 234 241 250 252 254 256 256 305 15 5 339 329 338 353 355 350 346 344 346 352 351 347 343 346 345 343 345 349 347 343 339 340 343 345 345 342 337 333 329 328 327 326 324 317 310 305 304 306 310 312 312 312 312 312 314 316 317 316 313 309
221 227 230 231 232 232 234 237 243 250 254 255 251 250 251 261 30 23 4 340 348 358 359 350 342 338 337 339 344 343 341 342 350 353 353 355 354 351 348 348 352 353 351 347 340 334 330 328 325 323 321 319 312 304 296 291 297 306 313 318 322 324 326 328 328 328 326 323 319
228 236 240 240 241 244 249 258 268 268 264 259 258 262 283 1 16 14 9 8 9 6 355 336 324 315 312 315 328 340 349 356 359 0 1 4 1 357 355 357 360 356 349 340 333 331 331 329 325 322 318 314 303 292 281 275 283 299 315 323 329 332 333 333 333 332 332 331 328
236 244 249 251 253 258 267 280 276 268 261 258 264 285 338 8 9 9 8 7 6 360 350 330 318 308 309 322 345 5 14 15 11 7 5 6 5 2 0 1 359 351 340 329 337 343 344 338 331 327 323 317 298 282 273 271 285 306 321 329 332 333 332 331 332 334 335 334 332
244 252 258 261 262 265 271 272 264 257 254 254 270 314 359 10 10 7 3 358 354 351 346 336 331 334 346 3 13 22 28 29 21 14 8 5 4 4 3 2 355 344 334 328 344 348 349 346 343 340 337 333 315 300 296 305 319 328 335 338 339 337 334 332 334 334 334 332 330
252 257 258 255 256 257 257 252 254 254 257 270 306 346 359 4 7 7 1 350 341 339 340 344 353 4 13 20 22 23 23 23 21 18 12 7 4 3 3 360 351 340 334 339 348 349 349 348 349 352 356 1 353 343 336 335 342 345 347 347 347 345 341 337 334 332 330 327 323
254 251 249 248 250 250 251 249 255 263 274 304 333 339 341 346 5 6 358 340 332 330 338 356 12 18 23 29 29 24 18 9 9 9 9 9 8 4 0 354 347 338 337 345 349 350 350 352 359 5 14 29 21 8 355 349 351 352 353 351 348 344 340 335 329 326 323 320 317
250 249 250 253 253 253 256 263 268 275 282 304 311 314 322 349 6 2 350 336 334 339 350 6 16 25 33 37 31 21 8 357 354 352 353 2 9 5 359 350 343 338 340 347 350 352 354 1 10 18 26 36 31 17 4 358 354 353 351 347 342 338 333 329 324 321 318 315 313
248 251 255 258 256 259 266 274 268 270 276 288 293 308 336 359 2 356 347 341 345 351 356 359 8 27 39 39 21 5 353 347 339 339 348 4 7 2 355 347 338 336 341 349 352 355 360 10 18 24 28 31 29 19 7 1 354 347 342 337 334 331 328 324 321 319 317 314 312
248 251 255 255 260 266 271 269 272 280 292 293 311 335 349 352 350 347 342 335 329 330 341 1 29 41 45 34 10 355 346 333 326 338 2 15 9 359 350 343 336 335 341 350 353 357 3 14 19 22 24 26 24 16 3 356 348 341 336 332 330 328 325 322 320 319 318 317 316
250 252 256 262 270 274 278 287 305 316 316 315 336 346 347 338 327 315 296 273 257 248 52 54 54 52 45 6 359 345 332 319 326 345 8 18 5 353 343 338 333 333 341 351 355 358 3 10 13 16 18 21 19 11 359 352 345 339 334 331 330 328 325 322 321 320 319 319 319
253 254 258 268 273 278 289 319 333 331 325 327 338 339 332 315 294 271 250 237 220 148 88 71 71 68 40 340 342 332 321 321 333 345 355 3 351 344 340 341 335 335 342 353 356 358 0 2 4 9 15 19 17 9 356 349 343 338 333 329 327 325 323 321 320 319 318 318 318
253 252 254 259 266 278 299 333 336 331 326 328 329 323 312 298 286 274 260 246 200 146 134 128 138 149 165 186 281 318 319 321 323 324 327 332 340 346 348 348 339 340 347 355 357 358 358 357 358 5 14 19 15 6 355 349 343 337 332 327 324 320 318 316 314 314 314 314 314
250 246 245 246 255 268 289 321 328 329 329 327 319 310 301 293 292 288 276 241 191 165 160 161 171 180 185 186 182 205 276 296 299 306 316 330 352 2 2 355 342 345 351 357 358 359 358 356 356 4 14 21 15 4 354 348 341 334 328 322 318 315 313 311 310 309 309 310 311
244 238 239 241 244 250 261 285 309 327 330 323 313 306 298 285 276 265 247 194 161 150 154 160 176 184 190 190 186 206 239 266 289 313 336 354 13 15 8 355 342 346 352 358 360 360 359 358 359 6 16 24 15 2 352 346 338 329 322 318 315 312 310 309 308 307 307 307 308
235 229 232 236 236 233 229 219 260 319 320 313 306 302 297 286 263 237 204 162 148 142 136 128 117 119 133 157 220 241 240 239 263 356 13 23 29 21 10 353 342 345 351 357 0 1 1 1 1 8 17 27 12 357 350 343 332 324 318 314 312 309 308 307 306 306 306 307 306
229 222 223 230 230 224 209 186 198 287 299 296 292 289 286 283 267 234 185 151 145 144 144 139 151 167 175 179 209 245 254 248 191 51 38 33 34 25 10 353 344 342 347 355 1 3 3 4 3 8 15 25 5 352 346 338 329 321 317 313 309 307 305 304 303 304 305 306 308
230 218 217 224 226 219 201 181 200 245 268 276 272 268 266 269 265 237 191 161 158 157 158 164 180 187 185 176 185 251 282 288 62 63 53 34 33 29 15 358 344 339 343 353 1 4 5 6 4 6 11 20 359 349 343 336 328 321 317 314 311 308 306 304 305 305 306 307 317
233 217 214 224 229 223 212 205 221 235 248 258 262 263 261 255 251 232 204 180 175 168 166 170 179 177 162 133 124 115 324 351 55 65 61 36 16 28 30 10 344 336 341 351 360 4 6 6 3 4 7 15 360 348 340 334 326 321 317 316 316 315 314 312 311 311 311 312 326
221 201 202 218 231 236 237 241 243 241 241 245 256 260 259 243 230 221 210 197 191 180 170 162 157 140 118 108 116 131 124 66 53 56 54 23 359 20 30 22 343 334 338 347 357 3 5 4 1 2 4 11 2 350 339 332 327 325 326 330 333 332 330 326 323 323 325 324 331
194 186 189 206 222 235 247 256 257 254 248 243 246 244 235 210 205 211 217 219 210 189 159 137 123 110 101 103 129 152 135 96 55 33 20 349 346 3 12 2 337 330 332 340 352 359 3 2 360 0 3 8 4 353 340 335 333 336 341 345 345 342 337 333 333 335 337 335 331